User: anonymous   Login
Location: Unspecified
(38.7273°N, 77.0677°W)
Time: 20:53:05
(UTC-04:00)
Language:

ISS - Orbit

View from above orbital plane
View from above orbital plane
View from above satellite
View from above satellite

Ground track
Ground track

The orbit data is extracted from the following two-line orbital elements,

1 25544U 98067A   21211.85127997 -.00000324  00000-0  22454-5 0  9997
2 25544  51.6434 126.7986 0001434 222.5829 246.9553 15.48863074295361
Epoch (UTC): 30 July 2021 20:25:50
Eccentricity: 0.0001434
inclination: 51.6434°
perigee height: 419 km
apogee height: 421 km
right ascension of ascending node: 126.7986°
argument of perigee: 222.5829°
revolutions per day: 15.48863074
mean anomaly at epoch: 246.9553°
orbit number at epoch: 29536

The dashed part of the orbit path shows where the satellite is in the earth's shadow,  

DLR